EHI
0 0 0 0 0 1 2 2 1 0 1 2 3 4 4 5 5 3 1 0 0 2 6 9 12 16 16 14 11 8 5 4 4 3 2 1 1 0 0 1 0 0 0
0 0 0 0 0 0 1 1 0 0 0 1 1 2 3 4 4 2 0 0 0 1 2 5 9 12 13 12 10 8 5 3 2 3 2 1 0 0 0 1 0 0 0
0 0 0 0 0 0 0 0 0 0 0 0 0 1 1 1 1 0 0 0 0 0 0 2 5 7 10 10 8 5 4 3 2 2 2 1 0 0 0 0 0 0 0
0 0 0 0 0 0 0 0 0 0 0 0 0 0 0 0 0 0 0 0 0 0 0 0 1 4 7 8 5 3 3 3 1 1 1 1 1 0 0 0 0 0 0
0 0 0 0 0 0 0 0 0 0 0 0 0 0 0 0 0 0 0 0 0 0 0 0 0 1 4 4 4 3 2 2 1 0 0 0 0 0 0 0 0 0 0
0 0 0 0 0 0 0 0 0 0 0 0 0 0 0 0 0 0 0 0 0 0 0 0 0 0 1 2 3 3 2 1 0 0 0 0 0 0 0 0 0 0 0
0 0 0 0 0 0 0 0 0 0 0 0 0 0 0 0 0 0 0 0 0 0 0 0 0 0 0 1 1 2 2 1 0 0 1 1 1 0 0 0 0 0 0
0 0 0 0 0 0 0 0 0 0 0 0 0 0 0 0 0 0 0 0 0 0 0 0 0 0 0 0 0 1 1 1 0 0 1 2 2 1 0 0 0 0 0
0 0 0 0 0 0 0 0 0 0 0 0 0 0 0 0 0 0 0 0 0 0 0 0 0 0 0 0 0 0 0 0 0 0 1 2 3 2 1 0 0 0 0
0 0 0 0 0 0 0 0 0 0 0 0 0 0 0 0 0 0 0 0 0 0 0 0 0 0 0 0 0 0 0 0 0 0 0 1 2 4 3 2 1 1 0
0 0 0 0 0 0 0 0 0 0 0 0 0 0 0 0 0 0 0 0 0 0 0 0 0 0 0 0 0 0 0 0 0 0 0 0 1 3 4 3 3 2 2
0 0 0 0 0 0 0 0 0 0 0 0 0 0 0 0 0 0 0 0 0 0 0 0 0 0 0 0 0 0 0 0 0 0 0 0 0 1 2 3 4 4 3
0 0 0 0 0 0 0 0 0 0 0 0 0 0 0 0 0 0 0 0 0 0 0 0 0 0 0 0 0 0 0 0 0 0 0 0 0 1 1 2 3 3 2
0 0 0 0 0 0 0 0 0 0 0 0 0 0 0 0 0 0 0 0 0 0 0 0 0 0 0 0 0 0 0 0 0 0 0 0 0 1 1 1 2 2 2
0 0 0 0 0 0 0 0 0 0 0 0 0 0 0 0 0 0 0 0 0 0 0 0 0 0 0 0 0 0 0 0 0 0 0 0 0 0 0 0 1 1 1
0 0 0 0 0 0 0 0 0 0 0 0 0 0 0 0 0 0 0 0 0 0 0 0 0 0 0 0 0 0 0 0 0 0 0 0 0 0 0 0 0 0 0
0 0 0 0 0 0 0 0 0 0 0 0 0 0 0 0 0 0 0 0 0 0 0 0 0 0 0 0 0 0 0 0 0 0 0 0 0 0 0 0 0 0 0
0 0 0 0 0 0 0 0 0 0 0 0 0 0 0 0 0 0 0 0 0 0 0 0 0 0 0 0 0 0 0 0 0 0 0 0 0 0 0 0 0 0 0
0 0 0 0 0 0 0 0 0 0 0 0 0 0 0 0 0 0 0 0 0 0 0 0 0 0 0 0 0 0 0 0 0 0 0 0 0 0 0 0 0 0 0
0 0 0 0 0 0 0 0 0 0 0 0 0 0 0 0 0 0 0 0 0 0 0 0 0 0 0 0 0 0 0 0 0 0 0 0 0 0 0 0 0 0 0
0 0 0 0 0 0 0 0 0 0 0 0 0 0 0 0 0 0 0 0 0 0 0 0 0 0 0 0 0 0 0 0 0 0 0 0 0 0 0 0 0 0 0
0 0 0 0 0 0 0 0 0 0 0 0 0 0 0 0 0 0 0 0 0 0 0 0 0 0 0 0 0 0 0 0 0 0 0 0 0 0 0 0 0 0 0
0 0 0 0 0 0 0 0 0 0 0 0 0 0 0 0 0 0 0 0 0 0 0 0 0 0 0 0 0 0 0 0 0 0 0 0 0 0 0 0 0 0 0
0 0 0 0 0 0 0 0 0 0 0 0 0 0 0 0 0 0 0 0 0 0 0 0 0 0 0 0 0 0 0 0 0 0 0 0 0 0 0 0 0 0 0
0 0 0 0 0 0 0 0 0 0 0 0 0 0 0 0 0 0 0 0 0 0 0 0 0 0 0 0 0 0 0 0 0 0 0 0 0 0 0 0 0 0 0
0 0 0 0 0 0 0 0 0 0 0 0 0 0 0 0 0 0 0 0 0 0 0 0 0 0 0 0 0 0 0 0 0 0 0 0 0 0 0 0 0 0 0
Wind_Speed
6 5 5 5 5 5 5 5 5 6 5 5 6 6 7 6 5 5 7 8 7 6 5 5 5 6 6 7 7 6 8 8 6 7 7 8 10 10 8 9 9 10 11
6 5 4 4 5 5 5 5 5 6 6 6 5 5 6 6 5 5 6 8 8 6 4 4 5 5 5 6 6 6 7 7 6 7 7 7 8 8 9 8 8 9 8
5 4 4 3 4 4 5 5 6 6 7 7 6 6 5 5 5 6 5 7 8 8 6 6 5 6 6 5 6 7 9 8 7 8 7 6 6 5 7 7 7 7 7
3 2 1 2 3 4 5 5 6 7 7 7 7 9 7 7 7 6 6 7 7 7 7 6 6 6 5 6 7 8 8 9 8 7 7 8 6 5 4 7 7 7 7
1 1 3 4 5 6 7 7 7 8 8 8 8 8 9 8 7 7 7 7 6 6 6 6 6 6 6 6 7 7 8 8 9 7 7 8 6 8 7 5 6 7 7
2 3 5 6 7 8 9 9 9 10 10 10 10 10 10 10 10 10 9 7 6 5 5 5 4 5 5 5 6 7 9 9 9 8 7 7 7 8 8 7 6 6 5
5 6 8 9 10 10 11 11 11 11 11 12 11 12 12 12 12 12 10 9 8 6 5 5 4 5 4 5 5 7 9 10 10 10 8 8 8 6 6 7 6 5 4
7 8 9 10 11 12 12 12 12 13 13 13 12 12 13 12 11 11 12 12 10 9 7 7 6 6 6 6 5 6 8 8 9 11 11 8 8 7 7 7 6 6 6
8 10 11 12 12 12 13 13 13 14 14 14 14 13 13 13 14 14 13 12 10 10 10 9 9 8 7 7 6 6 7 7 8 10 11 10 8 8 8 7 7 7 6
10 12 12 12 12 12 13 14 14 14 15 15 14 13 14 14 14 14 15 14 14 13 13 13 12 11 10 9 8 7 7 7 7 7 10 10 9 8 8 8 8 7 7
12 13 12 12 13 14 15 15 15 16 15 15 15 15 15 15 15 14 15 14 14 14 14 14 13 13 12 11 10 10 9 9 8 7 9 11 11 8 8 9 8 8 7
13 13 13 13 14 15 16 16 16 16 16 16 16 16 15 16 16 16 15 15 15 14 15 14 14 14 14 13 12 12 11 11 10 9 8 9 8 11 10 8 10 9 8
13 13 13 14 15 15 16 16 16 17 16 16 16 16 17 17 16 16 16 16 15 15 15 15 15 15 15 14 14 13 12 12 11 10 10 9 8 10 9 10 10 9 9
13 14 14 15 15 15 16 16 16 16 16 16 16 17 17 17 17 17 16 16 16 16 15 16 16 16 16 16 15 14 13 12 11 11 10 10 9 8 8 8 9 9 9
14 14 15 15 16 16 16 16 16 16 16 16 17 17 17 17 16 17 16 16 16 17 16 16 16 16 15 15 16 15 15 13 13 12 11 11 11 10 7 6 7 7 8
15 16 17 17 17 16 16 16 16 16 16 16 17 17 17 17 17 17 17 17 16 16 16 16 16 17 15 14 14 14 14 13 13 12 11 11 12 12 12 10 8 7 8
16 17 17 16 16 16 15 16 15 16 16 16 17 17 17 17 17 18 18 17 17 16 16 16 16 16 16 12 12 15 14 14 13 12 11 10 10 12 11 12 12 10 9
16 16 16 17 16 16 15 15 15 16 16 16 16 17 17 18 17 17 17 16 15 14 14 14 14 14 14 13 13 13 15 15 14 13 12 11 10 10 10 10 11 11 10
15 15 16 16 16 15 15 15 15 16 16 16 16 17 17 18 18 17 16 15 13 12 12 12 12 12 12 11 13 13 13 13 14 14 14 13 12 10 9 10 11 11 10
14 14 15 15 15 14 15 15 16 16 16 16 16 17 17 17 17 17 15 13 11 11 10 10 10 11 10 10 12 13 11 12 12 12 13 12 11 9 12 11 11 11 10
15 15 14 14 13 14 14 15 15 15 16 16 16 16 16 16 16 14 12 12 10 10 8 9 7 8 8 10 13 13 10 10 11 10 10 10 14 11 11 10 10 8 8
15 15 14 14 13 13 13 15 15 15 15 16 16 16 15 14 12 13 11 10 9 8 7 6 5 4 6 8 11 13 13 9 9 9 8 7 15 13 11 10 8 5 6
14 14 14 14 13 13 13 14 15 15 15 16 16 15 14 13 12 11 11 9 7 5 4 4 4 4 4 6 9 12 12 10 8 7 2 5 12 11 10 11 9 8 8
14 13 14 14 14 14 14 14 14 14 14 15 15 14 13 12 11 9 8 7 6 5 4 3 2 3 4 5 7 9 9 10 10 8 6 8 8 7 6 8 10 9 9
13 13 13 13 15 14 14 14 13 13 14 15 14 13 12 11 10 8 6 7 6 5 5 4 3 2 2 1 1 3 5 7 8 8 8 9 9 10 9 9 8 8 9
13 13 14 14 14 14 14 14 13 13 13 12 12 10 10 9 8 7 5 1 2 2 3 4 4 2 1 2 1 1 1 0 3 6 8 8 9 9 9 9 9 9 8
Wind_Direction
78 70 67 63 61 52 39 23 11 2 346 347 340 340 338 334 335 340 341 329 314 299 282 277 266 260 252 242 234 229 232 232 230 241 243 234 230 230 232 233 238 232 230
95 84 74 67 53 46 34 21 11 2 350 354 335 330 329 329 342 349 347 347 340 322 298 287 284 267 260 251 243 233 245 240 221 236 245 239 221 213 225 224 224 234 225
98 92 76 58 46 34 17 6 356 346 350 340 333 336 328 327 342 346 349 353 350 345 336 312 294 279 268 258 249 236 236 242 229 229 245 248 241 207 189 211 219 218 224
116 99 65 26 10 360 349 344 338 337 334 326 336 338 334 334 338 333 341 339 343 347 348 338 322 307 286 269 254 240 237 238 236 220 234 260 303 275 200 187 196 206 218
140 345 341 338 334 332 331 329 329 326 322 317 310 306 314 322 323 326 326 324 330 338 346 348 339 327 308 289 271 258 241 234 238 234 218 220 225 243 266 221 185 195 205
271 301 314 316 318 321 322 322 324 320 315 307 302 296 299 303 308 310 311 310 313 316 325 325 326 317 309 300 281 263 245 242 242 245 237 223 218 218 227 235 220 211 201
282 297 307 314 318 320 323 323 322 319 316 309 301 295 293 292 288 291 298 299 298 295 297 301 301 299 295 293 289 274 260 245 240 236 237 236 235 235 229 236 229 221 202
292 302 308 313 314 319 322 322 322 318 316 312 308 302 294 288 290 295 297 295 291 289 287 274 268 271 278 279 274 275 270 257 245 239 238 239 234 230 227 232 231 220 210
301 305 311 314 316 321 323 322 319 315 313 311 307 297 294 294 295 294 284 281 282 281 275 268 262 255 254 260 264 262 268 271 258 246 237 237 237 229 226 226 232 236 225
310 313 316 317 319 320 319 317 315 314 312 309 309 307 306 299 294 290 289 287 284 279 275 269 263 257 250 244 246 253 253 258 263 262 251 237 236 229 223 222 223 230 243
318 319 318 319 318 317 317 318 317 314 312 311 311 307 303 301 297 291 286 283 279 276 271 266 263 258 252 245 239 244 245 246 249 254 257 247 240 233 223 219 218 219 223
317 317 319 320 318 318 319 318 316 313 311 311 308 305 304 301 297 294 293 289 283 276 271 265 259 256 251 245 239 239 241 240 242 241 243 252 247 236 231 222 219 217 214
320 319 319 319 318 318 317 314 312 311 312 311 308 306 304 302 300 297 294 290 285 279 273 266 259 253 250 246 240 237 236 238 239 239 236 237 242 242 232 226 220 215 207
319 319 319 317 318 316 314 313 311 312 312 312 309 306 304 303 301 299 295 290 285 280 272 265 258 252 247 244 240 235 233 233 234 235 235 233 232 238 240 234 228 223 213
320 320 319 318 317 316 315 313 313 313 314 311 307 306 306 304 301 298 295 291 286 280 273 265 258 251 245 239 235 234 231 228 229 227 227 228 226 231 237 244 236 225 218
321 321 319 319 318 317 315 315 313 314 313 309 309 309 307 304 302 300 295 292 287 282 275 267 258 252 246 233 221 229 235 228 226 226 223 220 212 218 222 236 248 246 230
321 320 320 318 317 316 316 314 314 314 311 310 308 309 308 306 304 301 298 294 290 285 277 267 257 250 247 235 211 214 231 231 227 225 222 224 209 198 213 213 220 236 243
319 319 318 318 317 318 317 316 314 312 310 310 311 311 310 308 307 302 298 295 290 284 277 267 258 250 243 223 209 207 225 231 227 223 221 224 223 208 209 213 211 214 218
318 317 317 317 318 317 319 317 313 311 311 312 315 315 312 309 307 304 304 300 294 285 278 268 257 246 237 217 202 202 224 224 225 223 219 219 220 198 194 221 221 214 211
320 318 317 316 317 321 321 316 313 312 314 317 316 312 309 308 308 308 307 304 298 288 282 270 259 245 232 208 195 201 226 222 220 218 218 213 223 187 184 220 227 222 210
319 319 318 316 320 322 318 312 311 312 315 315 311 308 309 309 308 309 308 307 302 294 285 274 260 240 226 198 191 199 226 226 220 217 213 206 185 190 192 221 234 230 218
321 323 320 319 320 321 317 313 312 314 314 313 311 309 311 311 312 312 310 309 303 294 286 277 260 232 214 206 191 196 219 245 232 226 223 193 163 182 195 215 230 223 217
322 323 321 319 319 321 318 312 312 314 314 313 311 311 312 312 313 315 316 313 307 298 289 278 255 227 211 194 186 193 206 220 237 238 223 138 153 176 198 217 217 213 218
323 324 322 319 319 320 317 313 313 316 314 312 312 312 313 314 317 317 318 321 321 318 307 285 260 226 212 199 191 194 196 200 218 227 176 157 168 210 228 194 200 216 220
323 323 320 317 317 319 318 317 318 319 315 312 313 315 315 314 313 317 326 328 337 349 320 319 308 269 223 163 175 227 210 207 205 202 203 205 196 202 208 213 210 208 208
322 321 321 319 319 319 318 320 323 320 315 312 314 315 314 314 313 318 323 252 288 345 317 307 310 315 80 119 167 242 271 202 179 207 210 210 208 208 208 208 205 207 209